Wind_Speed
11 10 9 7 6 5 3 3 4 4 4 5 6 6 6 7 7 8 9 9 10 10 11 11 12 12 13 13 14 15 16 18 19 19 19 18 17 16 15 14 14 14 14 14 14 14 15 15 15 16 16 17 17 18 18 18 19 19 19 19 19 18 18 18 18 18 18 18 18 19 19 19 19 19 20 20 20 21 21 22 22 23 23 23 24 24
8 8 7 6 4 3 2 3 4 4 5 6 6 7 7 7 7 7 8 8 9 10 10 11 12 12 13 14 15 16 18 19 19 19 18 17 16 15 14 13 13 13 14 14 14 15 15 15 16 16 17 17 18 18 19 19 19 19 19 18 18 18 18 18 18 18 18 18 18 18 19 19 19 20 20 20 21 21 22 22 23 23 24 24 24 24
7 5 4 3 2 2 1 2 4 5 5 6 7 7 8 8 7 7 7 8 8 9 10 11 12 13 15 16 17 18 19 19 19 19 17 16 14 13 13 13 13 13 14 14 15 15 16 16 17 17 18 18 19 19 19 19 19 18 18 18 18 18 17 17 18 18 18 18 18 18 19 19 20 20 20 21 21 22 22 23 23 24 24 24 25 25
5 4 3 2 1 0 1 3 4 5 5 5 6 7 7 7 7 7 7 8 9 10 10 12 13 15 16 17 18 19 20 20 19 17 15 14 13 12 12 12 13 14 14 15 15 16 16 17 18 18 19 19 19 19 19 18 18 18 18 17 17 17 17 17 18 18 18 18 18 19 19 20 20 21 21 22 22 22 23 23 24 24 24 25 25 25
4 3 2 2 2 2 2 3 3 4 5 5 6 7 7 7 6 7 7 8 9 11 12 13 14 16 17 18 19 20 20 19 18 16 14 12 12 12 12 13 13 14 15 16 17 17 18 18 19 19 19 19 19 19 18 18 17 17 17 17 17 17 17 17 18 18 18 19 19 19 20 20 21 21 22 22 23 23 23 24 24 24 25 25 25 25
5 3 3 3 3 3 2 2 3 4 6 6 7 7 6 6 6 7 8 10 11 12 14 15 16 17 18 19 20 20 20 18 16 14 12 12 12 12 13 14 15 16 17 17 18 18 19 19 19 19 19 19 18 18 17 17 17 17 17 17 17 17 18 18 18 19 19 19 20 20 20 21 21 22 22 23 23 23 24 24 24 24 25 25 25 26
5 4 3 3 3 2 2 2 3 5 6 7 7 7 6 5 6 8 10 11 13 14 16 16 17 18 19 20 21 20 19 17 15 13 12 12 13 14 15 17 18 18 19 19 19 19 19 19 19 19 18 18 17 17 17 17 17 17 17 17 18 18 18 19 19 19 20 20 20 21 21 22 22 22 23 23 23 23 24 24 24 25 25 25 25 26
5 4 4 4 3 2 2 1 3 5 7 8 8 7 6 7 8 10 12 13 14 16 17 18 19 20 20 21 21 20 18 16 14 13 13 14 15 17 18 20 20 20 20 20 19 19 18 18 17 17 16 16 16 16 16 17 17 17 18 18 18 19 19 19 20 20 21 21 21 21 22 22 23 23 23 23 23 23 24 24 24 24 25 25 25 26
5 5 5 4 4 3 2 2 4 6 7 7 7 7 8 10 12 14 15 15 16 17 19 20 22 23 23 22 21 19 16 14 14 14 15 16 18 20 22 22 22 21 20 19 18 17 17 16 15 15 15 15 15 16 16 17 17 18 18 19 19 19 20 20 21 21 21 22 22 22 22 23 23 23 23 23 24 24 24 24 24 25 25 25 25 25
5 6 6 5 4 4 4 4 5 6 7 6 6 7 9 12 15 17 18 18 18 18 19 20 22 24 24 23 20 17 15 14 13 14 16 18 20 22 23 23 22 21 19 18 17 16 15 14 14 14 14 15 15 16 17 17 18 18 19 19 20 20 21 21 21 22 22 22 22 23 23 23 23 23 24 24 24 24 24 24 24 25 25 25 25 25
5 4 5 5 4 5 5 6 6 6 7 6 6 7 9 13 15 17 18 18 19 20 20 20 21 22 23 22 20 16 14 14 14 16 18 20 22 23 23 22 21 19 19 18 17 16 15 15 14 15 15 16 17 17 18 19 19 20 20 20 21 21 21 22 22 22 23 23 23 23 23 23 23 23 24 24 24 24 24 24 24 25 25 25 25 25
5 4 4 4 5 6 6 6 6 7 7 8 9 10 12 14 15 15 15 16 18 19 20 21 21 21 20 19 17 15 14 14 16 19 21 24 25 25 24 22 21 20 19 18 17 17 16 17 17 17 18 18 19 19 20 21 21 21 21 21 21 22 22 22 23 23 23 23 23 23 23 23 23 23 24 24 24 24 24 24 24 24 24 25 25 25
4 4 4 5 6 7 8 8 8 8 8 9 10 11 12 14 16 15 14 14 16 18 19 20 21 20 19 16 13 12 13 15 17 21 23 25 25 25 24 23 22 22 21 21 20 19 19 20 20 20 20 21 21 21 22 22 22 22 22 22 22 23 23 23 23 23 23 24 24 24 24 24 24 24 23 24 24 24 24 24 24 24 24 24 25 25
4 5 6 6 7 8 9 9 9 8 8 9 10 11 13 15 16 16 15 15 16 17 18 18 19 19 17 13 11 10 12 16 19 22 23 24 24 23 22 22 22 22 23 23 23 22 22 22 22 23 23 23 23 23 23 23 23 22 22 23 23 23 23 23 24 24 24 24 24 24 24 24 24 24 24 23 23 24 24 24 24 24 25 25 25 26
5 6 7 7 7 7 8 8 8 7 8 9 11 13 14 15 16 16 16 15 16 17 17 17 17 17 14 11 10 11 13 17 20 22 22 23 22 22 21 21 22 22 23 23 23 24 23 23 24 24 24 24 24 24 24 23 23 23 24 24 24 24 24 24 24 24 24 24 24 24 24 24 24 24 24 24 24 24 24 24 25 25 25 26 26 26
6 6 7 7 6 6 7 7 7 7 9 10 12 13 14 15 16 16 15 15 16 16 16 16 16 15 13 11 11 12 15 18 20 21 21 22 22 21 20 21 21 22 22 22 23 24 24 24 24 24 25 25 25 24 24 24 24 24 24 24 24 24 24 24 24 24 24 24 24 24 24 24 24 24 24 24 24 24 25 25 25 26 26 26 26 26
6 6 6 6 6 6 7 8 8 8 10 11 13 14 14 15 15 15 15 15 14 14 13 13 12 11 11 13 13 14 17 20 21 21 21 21 21 21 20 20 20 21 22 22 23 23 24 24 24 25 25 25 25 25 24 24 24 24 24 24 24 24 24 24 24 24 24 24 24 24 24 24 24 24 25 25 25 25 25 26 26 26 26 26 26 27
6 6 6 5 6 7 8 8 8 9 11 12 13 14 15 15 15 15 14 13 13 13 13 12 11 10 10 13 14 16 19 21 21 20 20 20 20 20 19 19 20 20 21 22 22 23 23 23 24 24 25 25 25 25 25 25 25 24 24 24 24 23 23 23 23 23 23 24 24 24 24 24 25 25 25 26 26 26 26 26 26 26 26 26 26 26
6 6 6 6 7 8 9 8 9 10 11 12 14 15 15 15 15 14 13 13 12 12 12 12 12 12 13 14 17 19 20 21 20 19 18 19 20 20 19 19 19 20 21 21 22 22 22 23 24 25 25 26 26 26 25 25 24 24 24 23 23 22 22 23 23 23 24 24 24 25 25 25 25 26 26 26 26 26 26 26 26 26 26 26 26 26
6 7 7 7 8 8 9 9 10 11 11 12 13 14 15 15 14 13 12 12 12 12 12 12 13 13 14 16 19 20 20 20 19 18 18 19 20 20 19 19 19 20 21 21 22 22 22 23 24 25 26 26 26 25 25 24 23 23 23 22 22 22 22 23 23 24 24 25 25 25 26 26 26 27 27 27 27 27 26 26 26 26 26 26 26 26
7 7 7 7 8 8 8 9 10 11 11 12 13 14 14 13 13 12 12 12 12 12 12 12 13 14 15 17 19 20 20 19 18 17 17 18 19 19 19 19 19 20 21 21 21 21 22 23 25 26 26 26 25 24 23 23 22 22 21 21 21 22 23 24 24 25 25 26 26 26 27 27 27 27 27 27 27 27 27 27 27 27 27 27 27 27
6 6 6 7 7 8 9 10 11 11 11 11 11 12 12 12 12 12 13 13 13 13 13 13 14 15 17 17 19 19 19 18 17 16 17 17 18 19 18 18 19 20 21 21 22 22 23 24 25 25 25 25 24 23 22 21 21 20 21 21 22 23 24 24 25 26 26 27 27 28 28 28 28 28 28 28 27 27 27 27 27 28 28 28 28 27
6 6 6 7 7 8 9 10 10 11 10 10 10 10 11 11 12 12 13 13 13 13 14 15 16 17 17 18 18 18 17 16 15 16 15 14 16 18 19 19 19 20 21 21 22 23 24 24 24 24 24 24 23 22 21 20 20 20 21 22 23 24 25 25 26 27 28 28 28 29 29 29 28 28 28 28 28 28 28 28 28 28 28 28 28 28
6 6 6 7 7 8 8 9 10 10 10 10 10 10 10 11 11 12 12 13 13 14 15 16 17 17 17 17 17 16 15 15 15 15 14 13 16 18 19 20 20 21 22 22 23 23 24 24 24 24 24 23 22 21 20 19 20 21 22 23 24 25 26 27 27 28 29 29 29 29 29 29 29 29 28 28 29 29 29 29 29 29 29 29 29 29
5 5 6 6 6 7 7 8 8 8 9 9 9 9 10 10 10 11 11 12 12 13 14 15 15 15 16 15 15 15 15 15 15 14 14 14 16 19 19 19 20 21 23 23 23 23 24 24 24 24 24 23 21 20 19 19 20 21 22 24 25 26 27 28 29 29 29 29 29 29 29 29 29 29 29 29 29 29 29 29 29 29 29 29 30 30
4 4 5 5 5 6 6 6 7 7 7 8 8 9 9 10 10 10 11 11 11 12 13 13 13 14 15 15 15 15 15 15 15 14 13 14 16 19 20 19 20 21 23 24 24 23 23 23 24 23 23 22 20 18 18 18 20 21 23 25 26 28 29 29 29 29 29 29 29 29 29 29 29 29 29 29 29 29 29 29 29 30 30 30 30 30
4 4 5 5 5 5 6 6 6 6 7 7 8 8 9 9 9 10 10 10 11 12 12 11 11 12 14 14 14 15 17 16 14 13 13 14 16 17 19 19 20 21 23 23 23 23 22 22 22 22 21 20 18 17 18 19 21 22 24 26 28 29 29 29 29 29 29 29 29 29 29 29 29 29 29 29 29 29 29 29 29 30 30 30 29 28
6 6 5 5 5 5 5 5 5 5 6 7 8 8 8 8 9 9 9 10 11 11 10 10 10 10 11 13 14 16 17 15 12 12 13 15 15 16 18 19 20 21 22 23 24 23 21 20 20 20 19 18 17 18 20 22 23 24 26 27 28 28 28 29 29 29 28 28 29 29 29 29 29 29 29 29 29 29 29 29 29 30 30 29 27 26
7 6 5 4 4 4 4 4 4 4 5 7 7 7 7 7 8 9 10 11 11 11 10 10 10 10 11 13 15 16 15 12 10 12 15 16 16 16 18 19 20 21 22 24 25 23 20 17 17 16 17 17 19 21 23 24 26 26 27 27 27 27 27 28 28 28 28 29 29 29 29 29 29 29 29 29 29 29 29 29 29 29 28 27 26 25
7 6 5 4 4 4 4 5 5 5 5 6 7 7 7 6 7 8 9 10 11 11 10 10 10 11 12 13 14 13 11 10 11 14 17 16 15 16 18 19 19 20 21 21 19 18 17 18 16 15 16 19 21 23 25 25 26 27 27 27 27 27 27 27 27 27 28 28 29 29 29 29 29 29 29 29 29 29 29 29 28 28 27 26 26 25
7 6 6 5 5 5 6 6 7 7 7 7 7 7 8 7 8 8 9 10 10 11 10 10 10 11 11 10 8 6 6 11 14 16 17 15 15 16 18 19 19 20 19 18 13 9 12 17 19 18 19 21 23 24 24 24 25 25 26 27 27 27 27 26 26 27 27 28 28 28 29 29 29 29 29 29 29 29 29 28 27 27 26 26 25 25
7 7 7 7 7 7 8 8 8 9 9 9 9 9 10 10 9 9 9 10 10 10 10 10 10 10 10 9 8 7 9 14 17 17 17 15 15 17 18 18 19 19 19 18 15 11 8 13 20 24 24 23 23 24 23 23 24 24 25 26 27 27 27 27 26 26 27 27 28 28 28 28 29 29 29 29 29 29 28 28 27 26 25 25 25 26
7 8 8 8 9 9 9 9 10 11 11 11 11 11 11 11 11 11 10 10 9 10 10 10 10 10 11 11 11 12 15 17 17 17 16 15 16 17 18 18 19 20 20 19 18 17 14 17 22 27 27 25 23 23 23 23 23 24 25 26 28 29 29 28 27 27 27 27 28 28 29 29 29 29 29 29 29 28 28 27 26 25 25 25 26 26
8 9 10 10 10 10 10 11 11 11 12 12 12 12 12 12 12 11 11 10 10 10 9 10 10 11 11 12 13 15 16 17 18 18 17 16 16 17 19 19 20 20 20 20 20 20 19 21 23 24 25 26 25 23 22 23 23 24 25 26 28 29 29 29 28 28 28 28 28 29 29 29 29 29 29 28 28 28 27 27 27 27 26 26 26 27
10 10 11 11 11 11 11 11 12 12 12 13 13 13 13 13 12 12 12 11 11 11 10 10 11 11 12 13 14 16 18 20 20 20 19 18 18 18 19 19 19 20 20 20 20 20 19 21 23 24 23 25 26 25 23 22 23 24 25 26 27 28 29 29 29 28 28 28 28 28 28 29 29 29 28 28 28 28 28 28 29 28 28 28 27 27
10 11 11 11 11 12 12 12 12 13 13 13 13 14 13 13 13 12 12 12 12 12 12 12 12 13 13 14 16 18 20 23 23 22 21 20 20 19 19 19 20 20 20 20 21 20 20 22 23 24 24 23 23 24 25 24 24 25 25 26 26 27 28 28 28 28 28 27 27 27 28 28 28 28 28 28 28 28 29 29 29 29 29 28 27 26
10 11 11 11 11 12 12 12 12 13 13 14 14 14 14 13 13 13 13 14 14 14 14 15 15 15 16 16 18 19 22 23 23 23 22 22 22 21 20 20 21 21 20 20 21 22 22 22 23 24 23 21 21 22 25 27 27 26 26 26 26 27 27 27 27 27 27 26 26 27 27 27 26 27 27 28 28 29 29 29 29 28 28 27 27 26
10 11 11 11 11 12 12 12 12 13 13 14 14 14 14 14 14 14 15 15 16 16 16 17 17 17 17 18 19 20 21 22 23 23 22 22 23 22 22 22 22 22 22 21 21 22 22 21 19 18 20 22 24 25 26 27 27 27 28 27 27 26 26 26 26 26 26 26 26 27 27 26 26 27 27 28 28 29 29 29 28 28 27 27 27 27
10 10 10 10 11 12 12 12 13 13 13 14 14 14 14 14 15 15 16 17 17 18 18 18 19 19 19 19 20 20 21 22 22 22 22 22 22 22 22 22 22 23 23 23 22 22 22 21 19 18 19 21 25 27 28 27 27 28 29 29 28 27 26 25 25 26 26 26 27 27 27 26 26 26 27 27 27 27 27 28 28 28 28 28 28 28
9 10 10 10 11 12 12 12 13 13 13 14 14 14 15 15 16 17 18 18 19 19 19 19 20 20 20 20 20 21 21 21 22 22 22 21 21 22 22 23 23 24 24 24 23 23 22 22 23 24 24 23 24 26 27 27 27 28 29 28 27 27 27 27 27 26 26 26 26 26 26 26 26 26 26 26 25 26 27 28 28 28 28 28 27 28
9 10 10 11 12 12 12 12 12 13 13 14 15 15 16 17 18 19 20 20 20 20 21 21 21 21 21 20 20 20 21 21 21 21 21 21 21 21 22 23 24 25 24 24 24 24 23 24 24 25 25 26 27 27 28 28 28 28 28 26 27 28 30 29 27 26 26 26 26 26 26 26 26 26 26 26 26 27 27 28 29 29 29 28 27 27
10 10 11 11 12 12 12 12 12 13 14 15 15 16 17 18 19 20 20 21 21 21 21 21 21 21 21 21 21 21 21 21 21 21 21 21 21 21 22 23 24 24 24 24 24 24 24 24 24 25 25 26 26 27 27 28 29 28 27 26 28 30 30 29 27 25 25 26 27 27 27 27 27 27 27 27 28 28 28 29 29 29 29 28 27 27
11 11 11 12 12 12 13 13 14 14 15 16 16 17 17 18 19 19 20 20 21 21 21 21 21 21 21 22 22 22 22 21 21 20 21 21 21 21 22 23 24 24 25 24 24 25 26 25 24 24 26 26 25 26 27 28 29 28 27 27 27 26 25 27 28 28 27 27 27 27 27 27 27 27 28 28 28 29 29 29 30 29 29 28 28 28
11 11 11 12 12 12 13 14 15 15 16 16 17 17 17 18 19 19 19 19 20 20 21 21 20 20 20 21 22 23 23 22 21 21 21 21 21 21 22 23 24 24 25 25 24 25 26 25 25 26 26 25 25 26 27 28 28 29 28 27 26 25 24 26 29 30 30 29 29 29 28 28 28 28 28 29 29 29 29 29 29 29 29 28 28 28
11 11 12 12 13 14 14 15 15 16 16 16 17 17 18 18 19 19 19 19 19 20 20 20 19 18 18 19 21 22 23 23 23 23 22 22 21 21 22 23 23 24 25 25 25 25 25 25 26 27 27 26 25 25 26 27 28 28 28 28 26 26 27 28 29 29 29 29 29 29 29 29 28 28 28 28 29 28 29 29 29 29 29 29 28 28
11 11 12 13 14 14 15 15 16 16 16 17 17 17 18 18 19 19 18 18 18 19 19 19 18 16 17 18 20 21 22 23 23 23 23 23 23 23 22 23 23 24 25 25 26 26 26 27 27 28 28 27 26 26 26 26 26 26 27 28 27 27 28 28 28 28 28 29 29 30 30 30 29 28 28 28 29 29 29 29 29 29 29 30 29 29
11 12 12 13 14 15 15 15 16 16 16 17 17 17 18 18 18 18 18 18 18 18 18 18 17 17 17 18 19 20 21 22 23 24 24 24 24 24 23 23 23 23 24 25 26 27 28 29 29 29 27 26 26 27 27 26 25 25 26 27 27 27 27 27 28 28 28 29 30 31 31 30 29 28 29 29 29 29 29 29 29 29 29 29 29 29
11 11 12 13 14 15 15 15 16 16 16 17 17 17 17 18 18 18 18 18 18 18 18 18 17 17 18 18 19 20 20 21 22 23 24 24 24 24 23 23 23 23 23 24 25 26 27 28 29 29 28 27 26 26 27 26 26 25 26 26 26 26 26 28 28 29 29 29 30 31 31 29 27 28 29 28 28 29 29 29 29 30 30 30 29 29
10 11 12 13 13 14 15 15 15 16 16 16 17 17 18 17 17 17 17 18 18 18 17 17 18 18 18 19 20 20 20 21 21 22 23 23 23 23 23 23 23 23 23 23 24 24 25 25 26 26 26 26 26 26 27 27 26 26 26 25 25 25 26 27 28 28 28 29 30 31 30 29 27 27 28 27 27 28 29 29 30 30 30 30 30 30
10 11 12 12 13 14 14 15 15 15 15 16 16 17 17 18 18 18 18 18 18 17 17 17 18 18 18 19 20 21 21 21 21 22 22 23 23 22 23 23 23 23 23 22 22 22 22 22 21 21 20 20 22 24 25 25 26 25 24 24 24 24 25 26 27 28 28 28 29 30 30 29 28 27 27 26 27 28 29 29 29 29 30 30 30 31
10 11 12 13 13 13 14 14 14 15 15 15 16 16 17 18 18 18 18 18 18 18 18 18 18 18 19 19 20 20 21 21 21 21 22 23 23 23 22 22 22 22 21 20 20 20 19 18 18 19 20 19 18 19 21 22 24 24 24 24 24 24 24 26 27 27 27 27 28 29 29 28 27 27 26 26 26 26 26 27 28 29 29 29 30 31
Wind_Direction
156 160 166 174 182 189 205 240 260 273 288 297 303 308 311 312 315 317 320 320 319 320 320 320 319 318 319 320 321 322 323 324 325 325 324 323 322 322 322 323 324 324 324 323 323 323 323 323 323 322 322 321 320 319 318 317 316 316 315 315 314 314 314 314 313 313 314 313 313 313 313 313 313 313 313 312 311 311 311 311 311 311 311 310 310 310
163 166 170 179 188 197 217 271 286 294 300 306 309 311 314 315 318 320 323 322 321 320 319 317 316 316 316 317 318 320 321 323 324 324 323 322 321 321 322 324 325 325 325 324 323 323 323 322 321 320 320 319 318 317 317 316 315 315 315 315 314 314 313 313 313 312 312 312 312 312 312 312 312 311 311 311 310 310 311 311 311 310 310 310 310 310
155 157 161 171 185 202 270 311 312 312 313 316 318 319 320 323 326 328 328 325 321 318 316 314 313 313 314 315 317 319 322 324 325 325 323 322 321 321 322 324 325 325 324 323 323 322 322 321 320 319 318 317 316 316 315 314 314 314 314 314 314 314 313 313 313 313 313 313 312 311 311 311 310 310 310 310 310 310 310 310 310 310 309 309 309 310
143 132 130 129 144 271 327 335 334 332 329 326 326 327 328 331 333 332 326 321 316 312 311 311 312 313 314 315 317 320 324 326 327 326 323 321 320 320 321 321 323 323 323 322 321 320 320 319 319 318 317 316 316 315 315 314 314 313 314 313 313 313 313 313 314 314 313 313 312 311 310 310 310 309 310 310 310 310 309 309 309 309 309 309 309 309
125 108 99 78 69 55 5 348 344 341 336 332 332 336 339 339 336 328 319 312 309 309 310 311 313 314 316 317 320 323 327 328 328 326 323 320 319 319 318 318 319 319 319 319 319 318 318 317 317 316 316 315 315 315 314 314 314 314 314 314 314 314 314 314 314 314 313 313 312 310 310 309 309 309 309 309 309 309 308 308 308 308 308 308 308 308
106 90 79 71 73 69 45 13 350 340 335 336 339 343 346 341 330 319 313 312 312 312 313 314 315 316 317 320 324 327 329 330 329 326 322 320 318 318 317 317 317 317 316 316 316 316 316 316 315 315 315 315 315 315 315 316 315 315 315 315 315 315 314 314 314 313 312 312 311 310 309 309 308 308 308 308 308 307 307 307 307 307 306 306 306 306
102 87 79 79 81 82 76 36 356 345 346 348 349 349 345 334 321 316 316 318 319 319 318 317 317 318 320 324 327 330 332 331 330 327 324 322 320 319 319 319 319 318 317 316 315 315 315 315 315 315 315 316 316 317 317 317 316 316 316 315 315 314 314 314 313 313 312 311 310 309 308 308 308 307 307 307 307 306 306 306 305 305 305 305 305 305
103 92 83 84 87 91 95 35 358 356 357 357 356 352 342 328 321 319 320 322 324 325 324 322 320 321 323 327 331 334 335 334 333 331 328 326 324 323 323 322 321 321 319 318 318 317 316 316 316 316 316 316 317 318 318 317 316 316 315 314 314 314 314 314 313 312 312 311 310 309 308 307 307 307 306 306 306 305 305 305 304 304 304 304 304 304
100 93 85 80 71 62 52 14 1 4 7 4 359 352 344 337 331 328 328 330 331 332 331 328 326 325 327 331 335 338 339 338 337 334 330 328 326 325 325 324 324 323 323 322 322 322 321 321 320 319 318 317 317 317 317 316 315 314 313 313 314 314 314 314 313 312 311 311 310 309 308 307 307 306 306 306 305 305 304 304 304 303 303 303 303 303
98 92 84 74 53 35 27 12 4 4 7 3 355 347 343 343 342 339 337 336 335 334 333 332 329 328 329 333 337 341 342 340 336 332 328 325 324 325 325 326 326 326 326 326 326 326 326 326 324 323 321 320 319 318 317 316 315 314 314 315 315 315 314 313 312 312 311 310 309 308 308 307 307 306 306 305 304 304 304 303 303 303 303 302 302 302
87 80 71 60 42 25 18 12 8 3 357 349 343 340 341 346 347 345 342 337 335 334 333 332 331 330 331 334 338 342 341 336 329 326 324 324 324 325 327 328 329 329 329 329 329 330 331 330 329 326 325 324 323 321 320 318 317 317 318 318 316 315 314 313 312 311 311 310 309 308 308 307 306 305 305 304 304 303 303 302 302 302 302 302 301 301
68 57 45 36 28 21 16 11 6 359 352 348 348 349 349 349 348 346 341 335 333 333 332 332 331 332 332 335 338 338 335 327 322 322 323 325 327 329 331 332 332 333 332 332 332 334 335 334 332 329 328 326 325 323 322 321 320 320 319 317 315 314 312 312 311 311 310 310 309 309 308 307 306 305 304 304 303 302 302 302 301 301 301 301 301 300
50 38 29 24 22 19 16 12 9 6 360 357 356 352 347 346 345 344 340 335 333 332 332 330 330 331 335 338 337 332 325 320 319 322 325 327 329 331 332 333 334 334 334 334 335 336 336 335 333 330 329 327 326 324 323 322 321 320 317 315 313 312 312 311 311 310 310 310 309 308 308 307 306 305 305 304 303 302 302 301 301 301 301 300 300 300
36 26 23 24 23 20 15 12 9 7 2 356 350 344 340 340 341 341 339 335 334 334 333 329 327 328 334 338 334 325 318 319 322 325 327 327 329 330 331 331 331 332 333 332 332 334 335 333 330 329 328 327 325 324 324 322 320 317 314 312 312 312 311 311 311 310 310 309 309 309 308 307 306 306 305 304 303 302 301 301 301 300 300 299 299 298
34 27 26 25 23 19 12 8 2 356 348 342 339 337 337 338 340 340 339 335 334 334 334 330 328 327 330 332 327 321 319 323 328 329 327 325 326 329 330 329 328 329 329 327 327 329 331 329 327 326 326 325 324 323 322 318 315 313 312 311 311 311 311 311 311 310 310 310 309 308 308 307 307 306 305 304 304 303 301 301 300 299 298 298 298 297
39 33 30 25 20 13 6 359 352 342 337 336 336 336 336 336 338 338 337 333 332 333 334 333 331 329 327 327 324 322 325 329 331 329 325 322 323 327 331 328 324 323 323 322 322 324 326 326 325 324 323 322 322 321 318 314 312 311 311 311 311 311 311 311 311 310 310 310 310 309 308 307 307 306 305 305 304 303 302 300 299 298 298 297 297 296
43 36 29 21 12 3 357 354 347 340 337 338 338 337 336 334 335 335 333 331 331 332 332 333 331 328 324 322 322 324 328 331 330 327 323 319 320 325 329 326 321 318 319 319 319 320 321 322 322 321 320 320 319 317 315 313 312 311 311 311 311 311 311 311 311 310 310 310 310 309 308 308 307 306 305 305 304 303 302 301 299 298 298 297 296 296
43 31 22 13 1 354 352 350 346 343 341 338 336 335 334 333 332 331 328 327 327 327 326 326 323 319 317 316 316 320 327 329 328 325 321 317 317 322 325 323 319 316 316 315 316 318 319 319 319 319 318 317 316 315 314 313 312 311 311 311 311 310 310 310 310 310 310 310 309 309 308 308 307 306 306 305 304 303 302 301 300 299 298 297 296 295
37 24 15 6 357 352 350 347 344 341 338 335 333 330 328 328 328 327 324 323 321 319 318 316 314 312 310 308 310 316 323 327 326 322 318 315 315 318 322 321 319 316 314 314 315 317 318 318 318 317 316 315 315 315 315 313 312 311 310 310 310 309 309 309 309 309 309 309 309 308 308 307 307 306 306 305 305 304 303 302 301 300 299 298 297 296
30 20 13 4 356 350 345 342 341 341 339 336 332 327 323 323 324 322 320 318 316 314 313 310 308 308 308 307 310 315 321 324 324 320 315 312 312 315 319 320 319 316 314 313 315 317 317 317 316 315 314 315 315 316 316 314 312 311 310 310 309 309 309 309 309 309 309 308 308 308 308 308 307 307 307 306 305 305 304 303 302 301 300 299 298 297
25 19 12 4 354 345 336 334 337 340 341 337 331 325 321 320 319 318 316 316 314 313 311 308 306 306 308 308 309 313 318 322 321 317 314 312 311 313 318 320 319 316 313 313 315 316 316 315 313 313 313 314 315 316 315 314 312 311 310 310 310 310 310 309 309 309 308 308 308 308 308 308 308 307 307 307 306 305 305 304 303 302 301 301 300 299
20 13 5 357 350 342 333 331 334 338 339 335 328 322 318 316 314 313 313 314 313 311 309 307 305 305 305 305 306 310 316 319 318 315 314 311 309 311 317 320 319 316 313 313 315 316 315 313 312 312 312 313 314 315 315 313 312 312 311 311 310 310 309 309 309 309 309 309 308 308 308 308 308 307 307 307 306 306 305 305 304 303 302 301 300 299
10 3 356 350 344 338 333 330 331 334 335 333 328 322 318 314 310 309 310 311 310 309 308 306 305 305 305 304 306 311 317 319 319 317 314 308 307 311 317 321 320 316 313 313 315 315 314 312 311 310 311 312 313 314 314 313 312 312 311 311 310 309 309 308 309 309 309 309 309 308 308 308 308 307 307 307 306 306 305 305 304 304 303 302 301 300
3 357 351 346 341 337 333 331 331 332 332 330 327 324 322 317 313 311 310 310 311 311 312 311 310 309 309 310 311 314 318 321 322 319 314 307 306 310 316 320 320 316 312 313 314 314 313 311 310 310 310 312 313 313 312 312 312 311 311 310 309 308 308 308 308 308 309 308 308 308 308 308 307 307 307 306 306 306 306 305 305 304 303 303 302 301
356 352 348 345 341 336 332 330 329 330 329 327 325 322 319 315 311 308 306 309 313 316 317 316 314 312 313 314 315 316 319 322 322 320 314 308 307 309 315 319 319 316 312 313 314 314 313 310 309 309 309 311 312 312 312 311 310 309 309 309 308 308 308 308 308 308 308 308 308 308 307 307 307 306 306 306 306 306 305 305 305 304 304 303 303 302
345 345 344 341 338 335 333 331 331 331 331 331 330 327 321 314 309 308 310 315 320 322 322 318 314 312 314 315 315 316 319 321 322 320 315 311 310 311 315 319 320 316 313 314 315 315 312 309 308 307 308 311 314 315 313 311 308 307 307 307 308 308 308 309 308 308 307 307 307 307 306 306 306 306 306 306 306 306 305 305 305 305 305 304 304 303
330 330 333 333 335 336 334 332 333 337 341 342 342 337 326 319 320 328 334 332 330 329 325 319 314 313 315 316 315 316 318 320 321 321 321 319 314 312 315 320 321 319 315 314 314 314 311 307 306 306 309 313 316 317 314 312 309 307 306 307 307 308 309 309 308 307 307 306 306 306 306 305 305 305 305 305 305 305 305 305 305 305 305 305 304 303
330 326 323 324 328 331 330 326 329 341 350 351 350 346 336 331 340 348 347 339 336 333 327 319 314 314 315 315 314 314 316 317 320 325 327 327 320 313 316 321 323 322 319 316 315 313 311 307 306 308 312 316 317 316 314 312 309 308 307 307 308 308 309 309 308 307 306 306 306 305 305 305 305 305 305 305 305 305 305 305 306 306 306 305 304 302
339 333 327 323 323 325 326 321 322 333 348 354 354 350 344 343 349 353 347 340 339 338 331 321 315 314 313 312 312 313 314 315 322 330 331 330 322 315 318 322 325 324 324 321 319 317 314 311 312 314 316 317 317 315 313 312 311 310 309 309 309 308 308 308 308 307 306 306 305 305 305 305 304 304 304 304 304 304 305 305 306 306 306 305 303 301
350 349 348 346 345 345 345 344 344 345 351 357 357 353 352 349 347 343 336 334 338 339 333 322 317 315 315 315 315 315 315 318 325 331 333 330 322 318 322 323 324 326 327 326 324 321 317 316 316 317 318 317 315 314 313 313 312 312 311 310 309 309 308 307 307 306 305 305 305 305 304 304 304 304 304 304 304 304 304 305 306 306 305 304 302 300
2 7 11 10 11 11 9 8 7 8 8 8 6 4 359 354 346 338 333 331 333 334 330 322 317 315 316 317 318 314 310 314 320 327 332 327 320 317 321 322 321 323 326 327 326 320 317 316 316 316 317 316 314 313 313 312 312 312 311 310 309 308 308 307 306 305 305 305 304 304 304 304 304 304 304 303 303 303 304 304 305 305 304 303 301 300
14 22 23 21 21 20 19 17 16 15 14 13 11 8 3 356 349 341 335 331 329 327 324 319 314 311 310 307 300 295 299 306 314 323 328 323 317 316 318 318 317 318 320 320 315 308 307 310 312 313 315 314 313 312 312 311 311 311 310 309 308 308 307 308 307 305 305 304 305 304 304 303 303 304 304 304 304 304 303 304 304 304 303 302 300 299
27 30 28 26 24 21 17 15 12 10 8 6 5 2 358 354 349 344 340 336 332 327 322 317 311 307 305 300 295 294 297 302 310 320 324 320 315 314 315 315 314 314 315 314 309 302 296 298 305 309 311 312 311 311 311 310 310 310 310 309 308 307 308 308 307 306 305 305 304 304 304 304 304 304 304 304 304 304 303 303 303 303 302 301 300 299
29 29 26 23 19 15 11 8 5 2 0 358 357 355 352 350 346 343 341 339 336 330 323 316 309 304 302 302 300 299 300 302 311 318 320 316 312 311 312 312 312 312 313 312 310 306 299 298 302 307 309 310 310 310 309 309 309 309 309 309 307 307 307 308 307 306 306 305 304 303 304 304 304 304 305 304 304 304 304 304 303 302 301 300 299 299
23 21 20 17 13 8 4 0 357 355 353 352 351 350 348 346 345 343 340 338 336 331 326 319 311 304 300 299 300 300 301 305 313 318 317 312 308 307 307 307 309 310 310 309 309 308 304 302 303 305 307 308 309 309 309 309 310 310 309 308 307 307 306 306 306 305 305 304 303 303 304 304 304 304 304 304 304 304 303 303 303 301 300 298 297 296
14 12 12 10 6 1 357 354 351 349 348 348 348 348 347 346 345 343 341 339 336 332 326 321 315 309 304 299 295 295 297 305 312 317 314 308 304 302 302 302 304 305 305 304 305 306 304 304 304 305 306 306 308 309 310 311 311 311 309 309 308 307 306 306 306 305 304 303 302 302 303 303 303 302 302 302 302 302 302 301 301 300 299 297 295 293
7 6 5 3 359 355 352 349 347 346 346 345 346 347 348 347 345 344 342 340 336 333 328 324 320 316 311 305 300 297 299 304 309 312 311 307 303 299 295 296 299 300 300 299 300 302 303 303 304 305 305 304 305 308 310 312 313 312 310 309 309 308 307 307 306 306 304 302 301 301 302 302 301 300 301 301 301 302 302 301 300 300 299 297 295 294
3 1 359 357 354 350 348 346 345 344 344 344 345 346 347 346 345 343 341 339 337 334 331 328 325 322 318 313 309 307 307 308 310 311 311 309 305 299 292 291 293 295 294 292 293 295 298 300 302 304 304 304 303 305 307 310 311 310 310 309 309 307 307 307 307 306 305 303 302 301 301 300 300 299 300 301 302 302 302 302 302 302 301 299 298 296
359 356 353 351 349 347 346 344 344 344 345 345 345 346 346 345 344 343 341 340 339 337 335 332 328 325 323 320 317 315 313 313 314 314 314 313 309 302 295 290 289 291 293 291 289 289 290 292 294 296 299 301 303 304 305 306 307 308 309 310 309 308 307 307 307 306 304 303 302 302 302 301 301 300 300 301 301 301 301 301 301 302 301 301 300 298
352 348 347 346 347 347 347 346 346 346 347 347 347 348 347 345 343 343 343 343 342 341 339 335 331 327 325 322 320 318 317 317 318 317 316 315 312 306 299 292 290 290 291 291 289 287 286 286 288 290 292 295 298 301 303 303 304 306 308 309 308 307 308 308 307 305 304 303 302 302 302 302 302 302 301 300 300 299 299 299 299 299 299 299 298 298
343 342 342 345 347 349 349 350 351 350 349 347 347 346 346 345 344 342 342 343 342 342 340 337 333 328 325 322 320 319 319 319 318 317 316 315 313 309 302 295 291 290 290 289 288 286 284 285 286 288 290 292 294 297 297 299 301 303 305 304 303 303 305 305 305 305 304 303 303 302 302 303 302 302 301 299 298 297 297 296 296 296 297 295 294 293
340 340 342 345 347 348 350 352 352 350 348 346 345 345 347 346 344 341 340 338 338 339 338 336 332 328 324 322 321 321 321 321 320 318 317 315 311 308 304 299 294 291 288 286 284 283 282 283 284 285 288 290 293 294 295 297 299 301 301 300 301 303 304 304 305 305 305 304 303 303 302 302 302 301 300 299 298 297 297 295 294 294 294 292 290 289
343 344 345 348 349 350 351 350 349 348 347 345 345 347 349 348 345 341 338 335 334 334 335 333 331 327 323 321 321 321 322 321 320 318 316 313 311 308 305 302 298 294 289 285 283 284 286 285 283 283 286 287 289 290 292 295 297 299 299 299 300 302 304 304 305 306 305 304 303 302 302 301 301 300 300 299 298 298 297 295 294 293 292 290 289 288
345 346 349 351 352 353 352 350 349 347 346 344 344 346 348 348 345 340 336 333 331 331 331 330 328 325 321 319 319 320 321 321 320 319 316 314 311 309 305 303 300 297 291 285 282 284 288 287 286 286 286 286 286 287 290 292 295 297 298 298 298 296 295 298 301 304 304 303 302 302 301 301 301 301 299 299 298 297 296 296 295 293 292 290 288 287
346 348 351 353 354 354 351 349 348 346 345 344 343 344 346 346 343 339 334 330 328 328 328 326 324 321 318 317 317 318 319 319 319 318 318 316 314 311 308 304 301 297 293 288 283 281 282 285 287 288 289 288 285 285 287 289 292 294 295 296 296 294 292 294 297 299 301 301 301 301 301 301 300 300 299 298 297 296 296 296 294 293 292 292 289 287
350 352 354 355 354 352 349 348 347 345 343 342 342 342 343 343 341 337 333 329 326 324 324 323 320 316 313 313 315 316 317 317 317 318 318 317 315 313 311 307 303 299 295 291 287 283 281 280 283 286 290 289 287 285 285 286 289 291 293 295 296 295 296 296 296 296 297 299 299 300 301 301 301 299 298 297 296 296 296 295 293 292 292 292 291 289
354 354 355 354 352 349 348 347 345 342 340 339 339 340 341 340 338 335 332 329 325 321 320 319 316 311 308 309 311 312 313 313 314 315 315 315 315 314 312 309 307 303 298 294 291 287 284 282 282 282 284 285 287 287 287 287 287 288 290 293 295 295 295 295 296 296 297 298 299 299 301 302 301 300 298 297 296 296 295 294 293 292 291 291 290 289
355 355 353 351 348 345 344 343 341 339 336 336 336 337 338 337 335 332 328 326 323 320 319 316 313 310 307 308 309 309 309 309 309 310 312 313 314 314 313 312 310 306 302 298 294 291 289 287 285 282 279 278 280 284 286 287 287 286 288 290 292 293 293 294 295 296 297 298 298 299 300 299 298 297 297 296 295 294 293 293 292 292 292 292 289 288
356 353 351 348 344 341 339 339 338 336 334 333 333 333 334 334 334 331 326 324 321 319 316 313 312 310 308 308 309 310 309 309 308 309 311 313 313 314 314 314 312 310 307 303 300 297 295 293 290 286 282 276 274 277 282 285 286 287 288 289 290 291 292 293 295 296 297 298 298 299 299 297 294 293 295 294 292 292 292 291 291 292 292 292 291 290
354 351 347 344 340 337 335 334 333 332 331 330 329 329 329 330 330 329 326 324 321 318 314 312 311 309 307 307 309 310 310 310 310 310 312 313 314 315 314 315 314 313 312 309 308 308 305 303 299 297 293 286 280 279 281 285 289 291 292 292 292 293 294 295 296 298 299 299 299 299 299 297 295 293 293 292 291 291 291 290 290 290 291 292 292 292
349 346 343 341 337 335 333 331 329 328 327 327 326 325 324 325 326 327 326 323 321 319 317 313 310 307 306 307 308 309 310 310 310 310 312 314 315 315 314 315 315 314 313 313 313 314 314 312 309 307 306 302 296 291 289 291 295 298 298 297 297 297 297 298 299 300 300 300 300 300 300 298 296 295 294 293 292 292 292 292 291 291 292 293 293 292
Height
813 813 813 813 812 812 813 813 813 813 813 813 812 812 812 812 812 812 812 811 811 810 810 810 809 809 808 808 807 806 806 805 805 804 803 802 801 800 799 799 798 798 797 796 796 795 795 794 793 793 792 791 790 790 789 788 788 787 786 785 785 784 783 782 782 781 780 779 778 778 777 776 775 774 773 772 771 770 770 769 768 767 765 765 764 762
813 812 812 812 812 812 812 812 812 812 812 812 812 812 811 811 811 811 811 810 810 810 809 809 808 808 807 807 806 805 805 804 803 802 801 800 800 799 798 798 797 797 796 795 795 794 794 793 792 791 791 790 789 789 788 787 786 785 785 784 783 783 782 781 780 780 779 778 777 776 775 775 774 773 772 771 770 769 768 767 766 765 765 763 762 761
812 812 812 812 812 811 812 812 812 812 812 811 811 811 811 810 810 810 810 809 809 809 809 808 808 807 806 805 805 805 804 803 802 801 800 799 798 798 797 797 796 796 795 794 794 793 792 792 791 790 790 789 788 787 786 785 785 784 783 783 782 781 780 780 779 778 777 777 776 775 775 774 773 772 771 770 769 768 767 766 765 764 763 762 761 760
812 812 812 811 811 811 811 811 811 811 811 811 811 811 810 810 810 809 809 808 808 808 808 807 807 806 805 805 804 803 802 801 800 800 799 798 797 797 796 796 795 795 794 793 792 792 791 790 790 789 788 787 786 786 785 784 784 783 782 781 781 780 779 779 778 777 776 775 775 774 773 772 771 770 770 769 768 767 766 765 764 763 762 761 760 759
811 811 811 811 811 811 811 811 811 811 811 811 811 811 810 810 810 809 808 808 807 807 806 806 805 805 804 803 803 802 801 800 799 798 798 797 796 796 795 795 794 793 793 792 791 790 790 789 788 787 786 785 785 784 784 783 782 781 781 780 780 779 778 777 776 776 775 774 773 773 772 771 770 769 768 767 766 765 764 763 762 761 760 759 758 757
811 811 810 810 810 810 811 811 811 811 810 810 810 810 810 810 809 809 808 807 806 806 805 805 804 804 803 802 802 801 800 799 798 797 797 796 795 795 794 793 793 792 791 790 790 789 788 787 786 785 785 784 783 783 782 781 781 780 780 779 778 777 776 776 775 774 774 773 772 771 770 770 769 768 767 766 765 764 763 762 761 760 759 758 757 756
810 810 810 810 810 810 810 810 810 810 810 810 810 810 810 810 809 808 807 806 805 805 804 803 803 803 802 801 800 799 798 797 797 796 796 795 795 794 793 792 791 790 790 789 788 787 786 785 785 784 783 782 782 781 781 780 780 779 778 777 776 776 775 774 774 773 772 771 771 770 769 768 767 766 765 765 763 762 761 760 760 759 757 756 755 755
810 809 809 809 810 810 810 810 810 810 810 810 810 810 809 809 808 807 806 805 804 803 802 802 801 801 801 800 799 798 797 796 795 795 795 794 793 792 791 790 790 789 788 787 786 785 785 784 783 782 782 781 780 780 779 779 778 777 776 776 775 774 774 773 772 772 771 770 769 769 768 767 766 765 764 763 762 761 760 759 758 757 756 755 754 753
809 809 809 809 810 810 810 810 810 810 810 810 809 809 808 807 807 806 805 804 803 803 802 801 800 799 799 798 798 797 796 795 795 794 794 793 792 791 790 789 788 787 786 785 785 784 783 782 781 781 780 780 779 779 778 777 776 775 775 774 773 773 772 771 771 770 770 769 768 767 766 765 764 763 762 761 760 759 758 757 756 755 755 753 752 751
809 809 809 809 810 810 810 810 810 810 810 809 809 808 808 807 806 805 803 803 802 802 801 801 800 798 797 796 796 795 795 795 794 794 793 792 791 790 789 788 787 785 785 784 783 782 781 781 780 780 779 778 778 777 776 775 775 774 773 773 772 771 771 770 770 769 768 767 766 765 765 764 763 761 760 760 759 758 757 756 755 754 753 752 750 750
809 809 809 809 810 810 810 810 809 809 809 808 808 808 807 807 806 805 803 802 801 801 800 800 800 798 796 795 795 795 794 794 793 793 792 791 790 789 788 787 786 785 784 783 782 781 780 780 779 778 778 777 776 775 775 774 773 772 772 771 770 770 770 769 768 767 766 765 765 764 763 762 761 760 759 758 757 756 755 754 753 752 751 750 749 748
809 809 809 809 809 809 809 809 809 808 808 807 807 807 806 806 806 805 804 803 802 800 800 799 798 798 797 795 794 794 794 793 792 791 790 789 788 787 786 785 784 783 782 781 780 780 779 778 778 777 776 775 775 774 773 772 772 771 770 770 769 769 768 767 766 765 765 764 763 762 761 760 759 758 757 756 755 754 753 752 751 750 749 748 747 746
810 809 809 809 809 808 808 808 808 807 807 807 807 807 806 806 806 805 805 803 802 801 800 798 797 796 796 795 795 794 793 792 791 790 789 788 787 786 785 783 782 781 780 780 779 778 778 777 776 775 775 774 773 773 772 771 770 770 769 769 768 767 767 766 765 764 763 762 761 760 759 758 757 756 755 754 753 752 751 750 750 748 747 746 745 744
809 809 809 808 808 808 808 807 807 807 807 807 807 807 807 806 805 805 804 802 802 801 800 799 797 796 795 795 794 794 793 791 790 789 788 787 786 785 784 783 781 780 780 778 778 777 776 776 775 774 773 773 772 771 770 770 769 769 768 767 767 766 765 764 763 762 761 760 759 758 757 756 755 755 754 753 752 750 750 749 748 746 745 745 743 742
809 809 808 808 808 808 808 808 808 808 808 808 807 807 806 805 805 804 803 802 801 800 799 798 797 796 795 795 794 793 792 791 790 788 787 785 785 784 783 782 781 780 779 778 777 776 775 775 774 773 772 771 770 770 769 768 768 767 766 766 765 764 763 762 761 760 760 759 758 757 755 755 754 753 752 751 750 749 748 747 745 745 744 742 741 740
809 808 808 808 808 808 808 808 808 808 807 807 807 806 805 805 804 803 802 802 800 800 799 797 796 795 794 794 793 793 791 790 789 788 786 784 784 783 783 781 780 779 778 777 776 775 775 774 773 772 771 770 769 769 768 767 766 765 765 764 763 762 761 760 760 759 758 757 756 755 754 753 752 751 750 749 748 747 746 745 744 742 741 740 739 738
808 808 808 808 808 808 808 808 807 807 807 807 806 806 805 804 804 803 802 801 801 800 799 798 797 795 793 792 792 792 791 790 789 787 786 784 782 782 782 781 780 778 777 776 776 775 774 773 772 771 770 769 768 767 766 765 765 764 763 762 761 760 760 759 758 757 756 755 754 753 752 751 750 749 748 747 746 745 744 743 741 740 739 738 737 736
808 808 808 808 808 807 807 807 807 807 806 806 805 805 804 804 803 803 802 801 801 800 799 798 798 796 794 792 791 791 790 790 788 786 785 783 782 781 781 780 779 778 777 776 775 774 773 772 771 770 769 768 767 766 765 764 763 762 761 760 760 759 758 757 756 755 754 753 752 751 750 749 748 747 746 745 744 743 742 740 740 738 737 736 735 734
808 808 807 807 807 807 807 807 807 806 806 805 805 804 803 803 802 802 801 801 801 800 799 798 797 796 795 793 791 790 790 789 788 786 785 782 781 780 780 780 778 777 776 775 774 773 772 771 770 769 768 767 765 764 763 762 761 760 760 759 758 757 756 755 754 753 752 751 750 749 748 747 746 745 744 743 742 741 740 739 737 736 735 734 733 732
808 807 807 807 807 806 806 806 806 806 805 805 804 804 803 802 802 801 801 800 800 799 799 798 796 795 794 792 791 790 789 789 787 786 784 782 780 780 779 779 778 776 775 774 773 772 771 770 769 768 766 765 764 763 761 760 760 759 758 757 756 755 754 753 752 751 750 750 749 747 746 745 744 743 742 741 740 739 738 736 735 734 733 732 731 730
807 807 807 807 806 806 806 806 805 805 805 804 804 803 802 801 801 801 800 800 799 798 798 797 796 795 794 792 790 789 789 788 787 785 784 781 780 779 779 778 777 775 774 772 772 771 770 769 767 766 765 764 762 761 760 759 758 757 756 755 754 754 753 752 751 750 749 748 747 746 745 744 742 741 740 739 738 737 736 735 734 732 731 730 729 727
807 807 807 806 806 806 806 805 805 805 804 804 803 802 802 801 800 800 799 799 798 797 797 796 795 794 793 791 790 789 789 788 787 786 784 781 779 777 778 777 776 774 773 771 770 770 769 767 766 765 763 762 761 760 759 757 756 755 755 754 753 752 751 750 749 748 747 746 745 744 743 742 741 740 738 737 736 735 734 733 731 730 729 728 726 725
806 806 806 806 806 805 805 805 804 804 803 803 802 802 801 801 800 799 799 798 797 796 796 795 794 793 792 790 789 788 788 788 787 786 784 781 778 776 776 776 775 773 772 770 769 768 767 765 764 763 762 761 760 758 757 756 755 754 754 753 752 751 750 749 748 747 745 745 744 742 741 740 739 738 736 735 734 733 732 731 730 728 727 726 724 723
806 806 806 805 805 805 805 804 803 803 803 802 802 801 801 800 800 799 798 797 796 795 795 793 792 791 790 789 788 788 787 787 786 785 784 781 779 776 776 775 774 772 770 769 768 767 765 764 762 761 760 759 758 757 756 755 754 753 752 751 750 749 748 747 746 745 744 743 742 740 739 738 737 736 735 734 732 731 730 729 727 726 725 724 722 721
806 805 805 805 805 805 804 804 803 803 802 802 801 800 800 799 799 798 797 796 796 795 794 793 791 790 789 788 787 787 786 786 785 785 783 781 778 776 775 775 774 771 769 767 766 765 764 762 760 759 759 758 757 756 755 754 753 752 751 750 749 748 747 746 745 743 742 741 740 739 738 736 735 734 733 732 730 729 728 726 725 724 723 721 720 718
805 805 805 804 804 804 803 803 802 802 801 801 800 800 799 798 797 797 796 795 795 794 793 792 791 790 789 788 787 786 785 785 785 784 783 781 778 776 775 774 773 771 768 766 765 764 762 760 758 757 757 756 755 755 754 753 753 752 750 749 748 746 745 744 743 741 740 739 738 737 736 735 733 732 731 730 728 727 726 725 723 722 720 719 717 715
805 804 804 803 803 803 802 802 801 801 800 800 800 799 798 797 796 795 795 795 794 794 793 792 790 789 788 787 786 785 785 784 784 783 782 781 779 776 774 774 773 770 768 765 763 763 761 759 757 756 755 755 754 754 753 752 752 750 749 748 746 745 744 742 741 740 739 737 736 735 734 733 731 730 729 728 726 725 724 723 721 720 718 717 715 713
804 803 803 802 802 801 801 800 800 800 800 799 799 798 797 796 795 795 795 794 794 793 793 792 791 790 788 787 786 785 784 784 783 782 782 780 779 777 775 773 772 770 768 764 762 760 760 758 756 755 754 754 753 753 752 751 750 749 748 746 745 743 742 740 739 738 737 735 734 733 732 731 730 728 727 726 725 723 722 721 719 718 716 715 713 711
803 803 802 802 801 800 800 800 799 799 799 798 798 797 796 795 795 795 794 794 793 793 792 792 791 790 789 787 785 784 783 783 782 782 781 780 778 776 775 773 772 770 768 764 760 757 757 756 755 754 753 753 752 752 751 750 749 747 746 744 743 742 740 739 738 736 735 734 732 731 730 729 727 726 725 724 723 721 720 719 718 716 714 713 711 709
802 802 801 801 800 800 799 799 798 798 797 797 797 796 795 795 795 794 794 793 793 792 792 791 791 790 789 787 785 783 782 782 782 781 780 779 777 775 774 773 772 771 769 766 760 756 753 753 754 754 753 752 751 750 749 748 747 745 744 742 741 740 739 738 736 735 733 732 730 729 728 727 725 724 723 722 720 719 718 717 716 715 713 711 709 707
801 801 800 800 800 799 799 798 798 797 797 796 796 795 795 795 794 794 793 793 792 792 792 791 790 790 789 788 786 784 782 781 781 781 780 780 778 776 775 773 772 771 771 770 766 760 754 750 750 752 752 751 750 749 748 747 745 744 742 741 739 738 737 736 735 733 732 730 729 727 726 725 723 722 721 720 718 717 716 715 714 713 711 709 707 705
801 800 800 800 799 799 798 798 797 797 796 796 795 795 795 794 794 793 793 792 792 791 791 791 790 790 789 788 787 785 783 781 780 780 780 779 777 776 775 774 772 771 770 770 770 767 760 753 749 749 750 750 749 747 746 745 744 743 741 740 738 736 735 735 733 731 730 728 727 725 724 723 721 720 719 718 716 715 714 713 713 712 710 708 706 704
800 800 800 799 799 798 798 797 797 796 796 795 795 794 794 794 793 793 792 792 791 791 790 790 789 789 788 787 786 785 783 781 780 780 780 779 777 776 774 774 772 770 769 769 769 767 764 758 753 749 748 748 747 746 745 744 743 741 740 738 736 735 733 732 731 730 728 727 725 724 722 721 720 718 717 716 715 713 712 711 711 710 709 707 705 703
800 800 799 799 798 798 797 797 796 796 795 795 794 794 793 793 792 792 791 791 790 790 790 789 788 788 787 786 785 783 782 780 780 780 780 779 778 776 774 773 772 770 769 767 766 765 762 759 755 751 747 745 745 745 744 742 741 740 739 737 735 733 731 730 730 728 726 725 723 722 720 719 718 716 715 714 713 711 710 710 709 708 708 707 705 702
800 799 799 798 798 797 797 796 795 795 795 794 794 793 793 792 791 791 790 790 789 789 788 788 787 787 786 785 784 782 780 779 779 779 779 779 777 776 774 773 771 770 769 766 765 763 760 757 755 753 749 745 742 742 742 741 740 739 737 736 735 733 730 729 728 726 725 723 722 720 719 717 716 715 714 712 711 710 709 708 707 706 705 705 704 702
799 799 798 798 797 797 796 795 795 795 794 794 793 792 792 791 790 790 789 789 788 788 787 787 786 786 785 785 784 782 780 778 778 778 778 778 777 775 774 772 771 770 769 766 764 762 760 756 754 752 750 746 742 739 739 739 738 737 736 735 733 731 730 728 727 725 723 722 720 719 717 716 715 714 712 711 710 709 707 706 705 704 703 702 701 700
799 798 798 797 797 796 796 795 795 794 794 793 792 792 791 790 790 789 788 788 787 786 786 785 785 785 784 784 783 781 780 778 777 777 777 776 776 775 774 772 770 770 769 766 764 762 759 756 752 750 748 746 744 740 737 736 735 735 734 733 731 730 728 727 725 724 723 721 719 717 716 715 714 712 710 710 708 707 705 704 702 701 700 699 698 697
799 798 798 797 797 796 795 795 794 794 793 792 791 791 790 789 789 788 787 786 786 785 785 784 784 783 783 782 781 780 779 778 777 776 775 775 775 774 773 771 769 768 768 766 764 762 760 757 753 750 746 744 742 741 739 736 734 732 731 730 730 729 727 725 724 723 721 720 718 716 715 714 712 710 709 707 706 705 703 701 700 699 698 696 695 694
799 798 798 797 796 796 795 795 794 793 792 792 791 790 789 788 788 787 786 785 785 784 784 783 782 781 781 780 779 779 778 776 775 775 774 774 773 772 771 770 768 767 766 765 763 762 760 757 754 751 747 744 740 738 737 736 735 732 730 728 726 726 725 724 723 721 720 718 716 715 713 712 710 709 707 706 705 703 701 699 698 696 695 694 692 690
799 798 797 797 796 795 795 794 793 793 792 791 790 789 788 787 786 786 785 784 784 783 782 781 781 780 779 778 778 777 776 775 774 774 773 772 771 771 770 769 767 765 764 763 762 760 759 756 754 751 749 745 742 738 736 735 733 732 730 727 724 722 722 722 721 720 718 717 715 713 711 710 709 707 706 705 703 702 700 698 696 694 693 692 690 688
798 798 797 796 795 795 794 794 793 792 791 790 789 788 787 786 785 784 784 783 782 781 781 780 779 778 778 777 776 775 775 774 773 772 771 771 770 770 768 767 766 764 763 761 760 759 757 755 752 750 747 745 742 739 735 734 732 731 730 728 725 722 720 720 719 718 716 715 713 712 710 709 707 706 704 703 701 700 699 697 695 693 691 690 689 687
798 797 796 795 795 794 793 793 792 791 790 790 789 787 786 785 785 784 783 782 781 780 780 779 778 777 775 775 775 774 774 773 772 771 770 770 769 768 767 766 765 763 761 760 758 756 755 753 751 749 746 744 741 738 734 732 731 730 730 727 724 721 718 717 717 716 715 713 711 710 709 707 705 704 702 701 699 697 696 695 693 691 690 688 686 685
797 796 795 795 794 793 793 792 791 790 790 789 788 787 786 785 785 784 783 782 781 780 779 778 778 776 775 773 772 772 771 771 770 770 769 768 767 766 765 764 763 761 760 758 756 754 752 751 750 747 745 743 741 738 734 731 729 728 727 726 725 722 718 714 713 713 713 712 710 709 707 705 704 702 700 699 697 695 694 692 690 689 688 686 685 683
796 795 795 794 793 793 792 791 790 790 789 788 787 786 785 785 784 784 783 782 781 780 779 778 777 776 775 773 771 770 770 769 769 768 768 767 766 765 764 762 761 760 759 757 755 752 750 748 746 745 743 742 740 737 734 730 728 726 725 724 724 722 719 715 713 711 710 709 707 706 705 704 702 700 698 696 695 693 691 689 687 686 685 683 682 680
795 795 794 793 792 792 791 790 790 789 788 788 787 786 785 785 784 783 783 782 781 780 779 778 777 776 775 773 772 770 768 767 767 766 765 765 764 763 762 761 759 758 756 755 754 751 749 746 744 741 740 739 738 735 733 730 727 725 723 722 721 720 718 715 713 711 709 707 705 704 702 701 700 698 696 694 692 690 689 687 685 683 681 680 679 677
794 794 793 792 792 791 790 790 790 789 788 787 787 786 785 784 784 783 783 782 781 780 779 778 778 777 775 773 772 770 768 766 765 764 763 762 762 761 760 759 757 756 755 753 751 750 748 745 743 740 738 736 735 733 731 729 727 724 721 720 719 717 715 713 712 710 708 706 704 701 700 699 698 696 694 691 689 687 686 684 682 680 678 677 676 674
794 793 792 792 791 791 790 790 789 788 788 787 786 785 785 784 784 783 782 781 781 780 779 778 777 776 775 773 772 770 768 766 764 762 761 760 759 758 757 756 755 754 752 750 749 747 745 744 742 740 738 735 732 729 728 727 726 724 721 719 717 715 713 711 709 708 707 705 702 700 698 697 696 694 691 689 686 684 682 681 679 678 676 674 672 671
793 792 792 791 791 790 790 790 789 788 787 787 786 785 785 784 784 783 782 781 780 780 779 777 776 775 774 773 771 770 768 766 764 762 760 759 757 756 755 754 753 751 750 749 747 745 743 741 740 739 737 735 732 728 725 724 723 722 720 718 716 714 711 709 707 706 705 703 701 699 697 696 694 691 689 686 683 681 679 677 676 674 673 671 670 668
793 792 792 791 791 790 790 790 789 788 787 787 786 785 785 784 784 783 782 781 780 779 778 777 776 774 773 771 770 769 767 765 763 761 760 758 756 755 753 752 751 750 748 746 745 743 741 739 738 736 735 734 731 727 724 722 721 720 718 717 715 713 710 707 705 704 703 701 699 697 696 694 692 690 688 684 680 677 675 674 672 671 670 668 667 665
792 792 791 791 791 790 790 790 789 788 787 787 786 785 784 784 783 782 781 780 780 779 778 776 775 774 772 770 769 767 766 764 762 760 759 757 755 754 752 751 749 747 745 744 742 741 739 736 735 734 733 732 730 727 724 721 719 718 716 715 713 711 709 706 704 702 701 699 697 695 693 692 690 688 686 683 679 675 672 670 669 667 666 665 664 662
792 792 791 791 791 790 790 789 789 788 787 787 786 785 784 783 783 782 781 780 779 778 777 776 775 773 771 770 768 766 765 763 761 759 758 756 755 753 751 750 749 747 745 742 740 739 737 735 732 730 729 730 729 727 725 721 719 716 715 713 711 710 708 705 703 701 700 698 696 694 692 690 688 686 684 681 678 673 670 667 665 664 663 662 661 659